Time,TemperatureF,DewpointF,PressureIn,WindDirection,WindDirectionDegrees,WindSpeedMPH,WindSpeedGustMPH,Humidity,HourlyPrecipIn,Conditions,Clouds,dailyrainin,SoftwareType,DateUTC
2013-01-15 00:14:00,28.4,22.1,30.34,West,270,0.0,-999.0,77,-99.99,,,0.00,Acu-Link.com,2013-01-15 05:14:00,
2013-01-15 00:29:00,28.4,21.8,30.34,North,0,0.0,-999.0,76,-99.99,,,0.00,Acu-Link.com,2013-01-15 05:29:00,
2013-01-15 00:44:00,28.4,22.1,30.33,WNW,292,0.0,-999.0,77,-99.99,,,0.00,Acu-Link.com,2013-01-15 05:44:00,
2013-01-15 00:59:00,28.4,22.1,30.34,West,270,2.0,-999.0,77,-99.99,,,0.00,Acu-Link.com,2013-01-15 05:59:00,
2013-01-15 01:14:00,28.4,22.4,30.35,NNW,337,1.6,-999.0,78,-99.99,,,0.00,Acu-Link.com,2013-01-15 06:14:00,
2013-01-15 01:29:00,28.4,22.4,30.35,NNE,22,1.1,-999.0,78,-99.99,,,0.00,Acu-Link.com,2013-01-15 06:29:00,
2013-01-15 01:44:00,28.4,22.1,30.34,SW,225,1.6,-999.0,77,-99.99,,,0.00,Acu-Link.com,2013-01-15 06:44:00,
2013-01-15 02:00:00,28.4,22.4,30.35,West,270,1.6,-999.0,78,-99.99,,,0.00,Acu-Link.com,2013-01-15 07:00:00,
2013-01-15 02:15:00,28.4,22.1,30.36,WSW,247,1.6,-999.0,77,-99.99,,,0.00,Acu-Link.com,2013-01-15 07:15:00,
2013-01-15 02:30:00,28.4,22.4,30.35,NE,45,1.6,-999.0,78,-99.99,,,0.00,Acu-Link.com,2013-01-15 07:30:00,
2013-01-15 02:46:00,28.4,22.4,30.35,WNW,292,2.0,-999.0,78,-99.99,,,0.00,Acu-Link.com,2013-01-15 07:46:00,
2013-01-15 03:01:00,28.4,22.7,30.35,SSW,202,1.6,-999.0,79,-99.99,,,0.00,Acu-Link.com,2013-01-15 08:01:00,
2013-01-15 03:16:00,28.4,22.4,30.35,WNW,292,0.0,-999.0,78,-99.99,,,0.00,Acu-Link.com,2013-01-15 08:16:00,
2013-01-15 03:32:00,28.4,22.7,30.35,North,0,1.6,-999.0,79,-99.99,,,0.00,Acu-Link.com,2013-01-15 08:32:00,
2013-01-15 03:47:00,28.4,22.4,30.35,West,270,2.7,-999.0,78,-99.99,,,0.00,Acu-Link.com,2013-01-15 08:47:00,
2013-01-15 04:14:00,28.4,22.7,30.34,WSW,247,0.0,-999.0,79,-99.99,,,0.00,Acu-Link.com,2013-01-15 09:14:00,
2013-01-15 04:29:00,28.4,22.7,30.34,North,0,3.1,-999.0,79,-99.99,,,0.00,Acu-Link.com,2013-01-15 09:29:00,
2013-01-15 04:44:00,28.4,22.4,30.35,West,270,2.0,-999.0,78,-99.99,,,0.00,Acu-Link.com,2013-01-15 09:44:00,
2013-01-15 04:59:00,28.4,22.4,30.35,North,0,3.1,-999.0,78,-99.99,,,0.00,Acu-Link.com,2013-01-15 09:59:00,
2013-01-15 05:14:00,28.4,22.4,30.34,WSW,247,3.1,-999.0,78,-99.99,,,0.00,Acu-Link.com,2013-01-15 10:14:00,
2013-01-15 05:29:00,28.4,22.7,30.34,ESE,112,1.6,-999.0,79,-99.99,,,0.00,Acu-Link.com,2013-01-15 10:29:00,
2013-01-15 05:45:00,28.4,22.4,30.35,WNW,292,4.0,-999.0,78,-99.99,,,0.00,Acu-Link.com,2013-01-15 10:45:00,
2013-01-15 06:00:00,28.4,22.4,30.36,WNW,292,0.0,-999.0,78,-99.99,,,0.00,Acu-Link.com,2013-01-15 11:00:00,
2013-01-15 06:15:00,28.4,22.7,30.36,West,270,1.6,-999.0,79,-99.99,,,0.00,Acu-Link.com,2013-01-15 11:15:00,
2013-01-15 06:30:00,28.4,22.4,30.36,West,270,2.7,-999.0,78,-99.99,,,0.00,Acu-Link.com,2013-01-15 11:30:00,
2013-01-15 06:45:00,28.4,22.4,30.36,NNE,22,1.6,-999.0,78,-99.99,,,0.00,Acu-Link.com,2013-01-15 11:45:00,
2013-01-15 07:01:00,28.4,22.4,30.37,North,0,0.0,-999.0,78,-99.99,,,0.00,Acu-Link.com,2013-01-15 12:01:00,
2013-01-15 07:16:00,28.4,22.1,30.37,NE,45,1.6,-999.0,77,-99.99,,,0.00,Acu-Link.com,2013-01-15 12:16:00,
2013-01-15 07:31:00,28.4,21.8,30.38,NNW,337,2.0,-999.0,76,-99.99,,,0.00,Acu-Link.com,2013-01-15 12:31:00,
2013-01-15 07:46:00,28.4,21.8,30.39,NNW,337,2.0,-999.0,76,-99.99,,,0.00,Acu-Link.com,2013-01-15 12:46:00,
2013-01-15 08:01:00,28.4,21.8,30.39,SW,225,3.1,-999.0,76,-99.99,,,0.00,Acu-Link.com,2013-01-15 13:01:00,
2013-01-15 08:17:00,28.4,21.8,30.39,NNE,22,2.0,-999.0,76,-99.99,,,0.00,Acu-Link.com,2013-01-15 13:17:00,
2013-01-15 08:32:00,28.4,21.8,30.40,NE,45,1.1,-999.0,76,-99.99,,,0.00,Acu-Link.com,2013-01-15 13:32:00,
2013-01-15 08:47:00,28.4,21.8,30.39,North,0,0.0,-999.0,76,-99.99,,,0.00,Acu-Link.com,2013-01-15 13:47:00,
2013-01-15 09:03:00,28.4,21.8,30.39,NNE,22,1.6,-999.0,76,-99.99,,,0.00,Acu-Link.com,2013-01-15 14:03:00,
2013-01-15 09:18:00,28.4,21.5,30.39,NW,315,0.0,-999.0,75,-99.99,,,0.00,Acu-Link.com,2013-01-15 14:18:00,
2013-01-15 09:33:00,28.4,21.8,30.39,North,0,1.1,-999.0,76,-99.99,,,0.00,Acu-Link.com,2013-01-15 14:33:00,
2013-01-15 09:48:00,28.4,21.8,30.40,NNE,22,1.1,-999.0,76,-99.99,,,0.00,Acu-Link.com,2013-01-15 14:48:00,
2013-01-15 10:03:00,28.4,21.5,30.40,WNW,292,1.1,-999.0,75,-99.99,,,0.00,Acu-Link.com,2013-01-15 15:03:00,
2013-01-15 10:19:00,30.2,22.6,30.39,NE,45,1.6,-999.0,73,-99.99,,,0.00,Acu-Link.com,2013-01-15 15:19:00,
2013-01-15 10:34:00,30.2,22.6,30.40,WNW,292,1.1,-999.0,73,-99.99,,,0.00,Acu-Link.com,2013-01-15 15:34:00,
2013-01-15 10:49:00,30.2,21.9,30.38,NW,315,3.1,-999.0,71,-99.99,,,0.00,Acu-Link.com,2013-01-15 15:49:00,
2013-01-15 11:04:00,30.2,22.6,30.37,NNW,337,0.0,-999.0,73,-99.99,,,0.00,Acu-Link.com,2013-01-15 16:04:00,
2013-01-15 11:19:00,30.2,21.6,30.37,ENE,67,3.6,-999.0,70,-99.99,,,0.00,Acu-Link.com,2013-01-15 16:19:00,
2013-01-15 11:35:00,32.0,23.7,30.36,ESE,112,3.6,-999.0,71,-99.99,,,0.00,Acu-Link.com,2013-01-15 16:35:00,
2013-01-15 11:50:00,30.2,22.3,30.36,East,90,0.0,-999.0,72,-99.99,,,0.00,Acu-Link.com,2013-01-15 16:50:00,
2013-01-15 12:05:00,30.2,21.3,30.35,East,90,2.0,-999.0,69,-99.99,,,0.00,Acu-Link.com,2013-01-15 17:05:00,
2013-01-15 12:21:00,32.0,21.9,30.35,West,270,1.1,-999.0,66,-99.99,,,0.00,Acu-Link.com,2013-01-15 17:21:00,
2013-01-15 12:36:00,32.0,22.7,30.35,East,90,4.0,-999.0,68,-99.99,,,0.00,Acu-Link.com,2013-01-15 17:36:00,
2013-01-15 12:51:00,32.0,21.9,30.34,ESE,112,1.1,-999.0,66,-99.99,,,0.00,Acu-Link.com,2013-01-15 17:51:00,
2013-01-15 13:07:00,32.0,22.7,30.33,NNW,337,1.6,-999.0,68,-99.99,,,0.00,Acu-Link.com,2013-01-15 18:07:00,
2013-01-15 13:22:00,32.0,21.6,30.32,SE,135,2.7,-999.0,65,-99.99,,,0.00,Acu-Link.com,2013-01-15 18:22:00,
2013-01-15 13:37:00,32.0,20.9,30.28,East,90,1.6,-999.0,63,-99.99,,,0.00,Acu-Link.com,2013-01-15 18:37:00,
2013-01-15 13:52:00,32.0,21.9,30.27,NNW,337,5.1,-999.0,66,-99.99,,,0.00,Acu-Link.com,2013-01-15 18:52:00,
2013-01-15 14:08:00,32.0,21.2,30.28,West,270,3.6,-999.0,64,-99.99,,,0.00,Acu-Link.com,2013-01-15 19:08:00,
2013-01-15 14:23:00,32.0,22.3,30.30,NNW,337,2.7,-999.0,67,-99.99,,,0.00,Acu-Link.com,2013-01-15 19:23:00,
2013-01-15 14:38:00,32.0,22.3,30.29,North,0,2.7,-999.0,67,-99.99,,,0.00,Acu-Link.com,2013-01-15 19:38:00,
2013-01-15 14:53:00,32.0,22.3,30.30,NW,315,2.0,-999.0,67,-99.99,,,0.00,Acu-Link.com,2013-01-15 19:53:00,
2013-01-15 15:09:00,33.8,24.7,30.28,NE,45,2.7,-999.0,69,-99.99,,,0.00,Acu-Link.com,2013-01-15 20:09:00,
2013-01-15 15:24:00,32.0,23.0,30.27,ENE,67,3.6,-999.0,69,-99.99,,,0.00,Acu-Link.com,2013-01-15 20:24:00,
2013-01-15 15:39:00,32.0,23.7,30.26,NNE,22,1.6,-999.0,71,-99.99,,,0.00,Acu-Link.com,2013-01-15 20:39:00,
2013-01-15 15:54:00,32.0,24.7,30.26,NNE,22,2.7,-999.0,74,-99.99,,,0.00,Acu-Link.com,2013-01-15 20:54:00,
2013-01-15 16:09:00,32.0,24.7,30.27,NNE,22,3.1,-999.0,74,-99.99,,,0.00,Acu-Link.com,2013-01-15 21:09:00,
2013-01-15 16:24:00,32.0,24.7,30.28,ESE,112,2.7,-999.0,74,-99.99,,,0.00,Acu-Link.com,2013-01-15 21:24:00,
2013-01-15 16:40:00,30.2,23.2,30.27,ENE,67,0.0,-999.0,75,-99.99,,,0.00,Acu-Link.com,2013-01-15 21:40:00,
2013-01-15 16:55:00,30.2,23.6,30.27,WNW,292,1.1,-999.0,76,-99.99,,,0.00,Acu-Link.com,2013-01-15 21:55:00,
2013-01-15 17:10:00,30.2,23.6,30.27,WNW,292,1.6,-999.0,76,-99.99,,,0.00,Acu-Link.com,2013-01-15 22:10:00,
2013-01-15 17:25:00,30.2,23.9,30.27,NNE,22,1.6,-999.0,77,-99.99,,,0.00,Acu-Link.com,2013-01-15 22:25:00,
2013-01-15 17:40:00,30.2,23.9,30.28,NNE,22,2.0,-999.0,77,-99.99,,,0.00,Acu-Link.com,2013-01-15 22:40:00,
2013-01-15 17:55:00,30.2,24.2,30.28,ENE,67,0.0,-999.0,78,-99.99,,,0.00,Acu-Link.com,2013-01-15 22:55:00,
2013-01-15 18:11:00,30.2,24.2,30.26,ENE,67,0.0,-999.0,78,-99.99,,,0.00,Acu-Link.com,2013-01-15 23:11:00,
2013-01-15 18:26:00,28.4,22.1,30.24,ENE,67,1.1,-999.0,77,-99.99,,,0.00,Acu-Link.com,2013-01-15 23:26:00,
2013-01-15 18:41:00,28.4,22.4,30.24,SW,225,0.0,-999.0,78,-99.99,,,0.00,Acu-Link.com,2013-01-15 23:41:00,
2013-01-15 18:56:00,30.2,24.2,30.24,West,270,0.0,-999.0,78,-99.99,,,0.00,Acu-Link.com,2013-01-15 23:56:00,
2013-01-15 19:12:00,28.4,22.1,30.24,WNW,292,0.0,-999.0,77,-99.99,,,0.00,Acu-Link.com,2013-01-16 00:12:00,
2013-01-15 19:27:00,30.2,23.9,30.24,WNW,292,0.0,-999.0,77,-99.99,,,0.00,Acu-Link.com,2013-01-16 00:27:00,
2013-01-15 19:42:00,30.2,23.9,30.22,East,90,3.1,-999.0,77,-99.99,,,0.00,Acu-Link.com,2013-01-16 00:42:00,
2013-01-15 19:58:00,30.2,24.2,30.22,SW,225,0.0,-999.0,78,-99.99,,,0.00,Acu-Link.com,2013-01-16 00:58:00,
2013-01-15 20:13:00,30.2,24.2,30.22,ENE,67,0.0,-999.0,78,-99.99,,,0.00,Acu-Link.com,2013-01-16 01:13:00,
2013-01-15 20:28:00,30.2,24.2,30.20,ESE,112,0.0,-999.0,78,-99.99,,,0.00,Acu-Link.com,2013-01-16 01:28:00,
2013-01-15 20:43:00,30.2,24.2,30.19,NE,45,1.6,-999.0,78,-99.99,,,0.00,Acu-Link.com,2013-01-16 01:43:00,
2013-01-15 20:58:00,30.2,24.2,30.19,NW,315,0.0,-999.0,78,-99.99,,,0.00,Acu-Link.com,2013-01-16 01:58:00,
2013-01-15 21:14:00,30.2,24.2,30.18,NNE,22,0.0,-999.0,78,-99.99,,,0.00,Acu-Link.com,2013-01-16 02:14:00,
2013-01-15 21:29:00,30.2,24.2,30.18,ENE,67,0.0,-999.0,78,-99.99,,,0.00,Acu-Link.com,2013-01-16 02:29:00,
2013-01-15 21:44:00,30.2,24.2,30.18,SE,135,0.0,-999.0,78,-99.99,,,0.00,Acu-Link.com,2013-01-16 02:44:00,
2013-01-15 21:59:00,30.2,24.2,30.17,East,90,0.0,-999.0,78,-99.99,,,0.00,Acu-Link.com,2013-01-16 02:59:00,
2013-01-15 22:15:00,30.2,24.5,30.17,NNE,22,0.0,-999.0,79,-99.99,,,0.00,Acu-Link.com,2013-01-16 03:15:00,
2013-01-15 22:30:00,30.2,24.2,30.15,ESE,112,0.0,-999.0,78,-99.99,,,0.00,Acu-Link.com,2013-01-16 03:30:00,
2013-01-15 22:45:00,30.2,24.2,30.13,North,0,0.0,-999.0,78,-99.99,,,0.00,Acu-Link.com,2013-01-16 03:45:00,
2013-01-15 23:00:00,30.2,24.5,30.12,NW,315,0.0,-999.0,79,-99.99,,,0.00,Acu-Link.com,2013-01-16 04:00:00,
2013-01-15 23:16:00,30.2,24.2,30.12,North,0,0.0,-999.0,78,-99.99,,,0.00,Acu-Link.com,2013-01-16 04:16:00,
2013-01-15 23:31:00,30.2,24.2,30.11,WNW,292,0.0,-999.0,78,-99.99,,,0.00,Acu-Link.com,2013-01-16 04:31:00,
2013-01-15 23:46:00,30.2,24.5,30.10,ENE,67,0.0,-999.0,79,-99.99,,,0.00,Acu-Link.com,2013-01-16 04:46:00,